Location: Harbor Side
(32.6101°N, 117.0814°W)
Time: 07:20:30
(UTC+00:00)

COSMO-SKYMED 1 - Pass Details

Date: 21 April 2021
Orbit: 621 x 623 km, 97.9° (Epoch: 13 May)

Event Time Altitude Azimuth Distance (km) Brightness Sun altitude
Rises 12:43:42 0° 153° (SSE) 2,889 6.1 -6.4°
Reaches altitude 10° 12:45:56 10° 147° (SSE) 1,986 5.4 -6.0°
Maximum altitude 12:50:04 45° 74° (ENE) 850 4.0 -5.2°
Drops below altitude 10° 12:54:12 10° 2° (N) 1,997 5.4 -4.3°
Sets 12:56:27 0° 356° (N) 2,907 6.2 -3.9°
